Location: Hackbridge
(51.3833°N, 0.1500°W)
Time: 20:09:21
(UTC+00:00)

STARLINK-38 - Pass Details

Date: 13 October 2019
Orbit: 548 x 551 km, 53.0° (Epoch: 15 November)

Event Time Altitude Azimuth Distance (km) Brightness Sun altitude
Rises 19:18:43 0° 242° (WSW) 2,711 7.9 -20.4°
Reaches altitude 10° 19:20:57 10° 240° (WSW) 1,820 6.9 -20.7°
Maximum altitude 19:25:03 71° 157° (SSE) 586 3.5 -21.4°
Enters shadow 19:25:13 70° 138° (SE) 589 3.5 -21.4°
